GFSFLT2_sfc_vis_117.txt.gz
Visibility
15.0 15.0 15.0 10.5 7.2 15.0 9.5 5.2 9.1 4.6 13.1 1.3 3.0 2.5 8.0 5.6 15.0 4.3 14.9 15.0 9.7 15.0 15.0 12.3 4.1 6.1 9.1
15.0 15.0 15.0 15.0 15.0 11.4 5.8 12.9 15.0 4.2 6.9 2.7 8.8 0.4 1.8 6.7 5.2 14.9 15.0 14.9 15.0 15.0 15.0 8.2 4.6 5.1 5.7
15.0 15.0 15.0 15.0 15.0 15.0 15.0 8.3 8.0 5.6 7.2 6.8 8.3 3.3 2.7 1.0 5.5 12.9 14.2 8.8 8.7 11.1 15.0 11.5 7.9 5.6 4.4
15.0 15.0 15.0 15.0 15.0 15.0 14.9 15.0 15.0 15.0 8.0 5.3 5.7 3.2 3.9 5.2 7.1 6.7 0.3 0.6 9.0 15.0 15.0 14.2 14.9 14.8 13.6
15.0 15.0 15.0 15.0 15.0 15.0 15.0 15.0 10.7 7.5 15.0 15.0 13.1 14.1 8.8 4.7 5.1 4.6 1.0 1.1 3.0 12.2 7.8 6.2 13.7 6.5 15.0
15.0 15.0 15.0 15.0 15.0 15.0 15.0 15.0 15.0 15.0 12.6 15.0 15.0 15.0 15.0 15.0 9.2 10.7 10.5 8.1 0.5 0.2 0.3 11.6 14.9 5.2 0.8
15.0 15.0 15.0 15.0 15.0 15.0 15.0 15.0 15.0 15.0 15.0 5.8 15.0 15.0 15.0 14.7 11.1 13.8 9.6 6.3 5.5 5.7 0.7 0.1 6.2 14.2 5.3
15.0 15.0 15.0 15.0 15.0 15.0 13.7 15.0 15.0 15.0 15.0 14.7 15.0 15.0 15.0 15.0 15.0 12.4 7.6 10.1 14.5 14.5 8.1 0.4 0.1 0.3 0.4
15.0 15.0 15.0 15.0 15.0 15.0 15.0 12.8 15.0 15.0 15.0 14.8 15.0 15.0 15.0 15.0 15.0 15.0 15.0 6.0 7.5 8.9 3.1 0.2 0.1 0.1 0.3
15.0 15.0 15.0 15.0 15.0 15.0 15.0 0.8 14.4 15.0 15.0 14.9 14.7 15.0 14.3 15.0 15.0 15.0 15.0 15.0 6.9 8.2 8.5 0.6 0.5 3.1 0.2
15.0 15.0 15.0 15.0 15.0 15.0 15.0 15.0 13.4 12.0 15.0 14.7 5.5 15.0 12.1 15.0 15.0 15.0 15.0 15.0 15.0 6.6 0.5 4.1 3.7 4.8 0.2
15.0 15.0 15.0 15.0 15.0 15.0 15.0 15.0 15.0 15.0 15.0 15.0 11.9 14.8 15.0 15.0 15.0 15.0 15.0 15.0 7.0 0.1 0.1 0.4 3.9 5.0 2.8
15.0 15.0 15.0 15.0 15.0 15.0 15.0 4.7 15.0 15.0 15.0 15.0 15.0 15.0 15.0 12.4 15.0 15.0 15.0 15.0 15.0 15.0 0.1 0.1 0.1 0.3 0.1
11.9 15.0 15.0 10.7 13.0 15.0 10.2 15.0 8.8 15.0 15.0 15.0 15.0 8.0 0.3 0.6 13.4 15.0 15.0 14.0 15.0 15.0 0.1 0.1 0.5 4.8 5.5
14.9 5.0 14.6 15.0 15.0 14.3 8.9 5.1 0.1 5.4 15.0 15.0 15.0 15.0 15.0 2.3 0.1 10.8 15.0 15.0 15.0 15.0 0.1 0.0 0.1 0.2 4.4
2.7 14.5 15.0 15.0 4.6 5.4 2.6 1.0 0.3 5.1 8.0 15.0 15.0 7.6 15.0 15.0 6.4 11.0 15.0 5.2 15.0 15.0 15.0 0.2 0.0 0.1 3.7
15.0 10.6 14.6 13.1 3.7 1.1 4.3 2.2 0.7 4.6 14.9 15.0 0.6 0.1 0.1 0.9 15.0 15.0 1.2 15.0 15.0 15.0 15.0 14.9 1.1 0.0 0.3

GFSFLT2_sfc_vis_123.txt.gz
Visibility
15.0 15.0 15.0 15.0 15.0 15.0 15.0 15.0 15.0 15.0 15.0 15.0 15.0 15.0 15.0 15.0 15.0 15.0 9.5 13.1 15.0 15.0 12.5 6.3 6.9 4.4 4.0
15.0 15.0 15.0 15.0 15.0 15.0 15.0 15.0 15.0 15.0 15.0 15.0 15.0 15.0 15.0 14.1 5.1 12.4 5.9 5.4 10.8 15.0 15.0 14.6 4.4 6.3 14.6
15.0 15.0 15.0 15.0 15.0 15.0 15.0 15.0 15.0 15.0 15.0 15.0 15.0 15.0 15.0 15.0 10.7 9.8 4.5 4.0 9.8 12.2 14.6 13.8 10.8 1.2 13.0
15.0 15.0 15.0 15.0 15.0 15.0 15.0 15.0 15.0 15.0 15.0 15.0 15.0 15.0 15.0 15.0 15.0 11.6 7.8 7.2 5.0 5.5 13.7 9.9 5.1 9.5 13.5
15.0 15.0 15.0 15.0 15.0 15.0 11.2 13.1 13.5 15.0 15.0 15.0 15.0 15.0 15.0 15.0 11.7 15.0 13.4 3.7 7.9 10.6 8.3 13.7 1.0 3.9 3.1
15.0 15.0 15.0 15.0 15.0 15.0 9.0 15.0 9.1 15.0 15.0 15.0 15.0 15.0 15.0 15.0 15.0 15.0 15.0 10.9 6.6 5.9 5.6 5.1 2.6 6.4 0.2
15.0 15.0 15.0 15.0 14.0 4.9 7.4 9.9 15.0 15.0 15.0 15.0 15.0 15.0 15.0 15.0 15.0 15.0 15.0 15.0 15.0 7.9 3.9 5.3 3.7 3.6 3.7
15.0 15.0 15.0 15.0 15.0 15.0 15.0 15.0 15.0 15.0 15.0 9.0 15.0 15.0 15.0 15.0 15.0 15.0 15.0 15.0 15.0 15.0 7.7 4.3 6.5 4.5 4.4
15.0 15.0 15.0 15.0 15.0 15.0 15.0 14.6 15.0 15.0 15.0 10.4 15.0 15.0 15.0 15.0 15.0 15.0 15.0 15.0 15.0 15.0 15.0 14.8 4.4 6.9 7.4
15.0 15.0 15.0 15.0 15.0 15.0 15.0 15.0 13.1 13.4 15.0 13.7 10.7 12.7 10.8 15.0 15.0 15.0 15.0 15.0 15.0 15.0 15.0 15.0 15.0 5.0 5.3
15.0 15.0 15.0 15.0 15.0 15.0 15.0 15.0 8.6 11.5 15.0 3.7 2.5 13.6 8.3 15.0 15.0 15.0 15.0 15.0 15.0 15.0 15.0 15.0 15.0 12.4 0.1
15.0 15.0 15.0 15.0 15.0 15.0 15.0 15.0 13.4 7.7 15.0 13.5 0.1 5.8 4.5 7.8 15.0 15.0 15.0 15.0 15.0 15.0 15.0 15.0 15.0 14.1 9.8
15.0 15.0 15.0 15.0 10.7 14.9 12.8 14.3 14.5 14.2 15.0 15.0 2.5 6.8 2.2 1.3 10.2 15.0 15.0 15.0 15.0 15.0 15.0 15.0 15.0 15.0 1.1
15.0 15.0 15.0 15.0 12.4 12.2 7.2 15.0 2.9 9.0 15.0 15.0 15.0 7.8 0.6 15.0 13.3 14.4 15.0 5.2 15.0 15.0 15.0 15.0 15.0 15.0 15.0
15.0 15.0 15.0 15.0 15.0 15.0 15.0 9.5 0.7 2.2 13.3 15.0 15.0 15.0 15.0 15.0 3.2 15.0 15.0 15.0 15.0 15.0 13.0 11.5 15.0 15.0 15.0
15.0 14.1 8.8 1.9 1.9 10.9 10.9 3.7 1.1 5.9 2.2 15.0 8.6 6.9 15.0 15.0 15.0 15.0 13.5 12.3 13.7 15.0 15.0 0.9 13.1 15.0 15.0
2.6 1.9 1.8 1.1 1.8 6.2 15.0 7.1 3.8 14.9 3.3 7.3 1.2 0.2 0.3 1.5 15.0 15.0 4.0 8.0 15.0 15.0 14.6 15.0 15.0 15.0 15.0

GFSFLT2_sfc_vis_129.txt.gz
Visibility
15.0 15.0 15.0 15.0 15.0 15.0 15.0 15.0 15.0 15.0 15.0 15.0 15.0 15.0 15.0 15.0 15.0 15.0 15.0 15.0 15.0 15.0 15.0 15.0 15.0 15.0 15.0
15.0 15.0 15.0 15.0 15.0 15.0 15.0 15.0 15.0 15.0 15.0 15.0 15.0 15.0 15.0 15.0 15.0 15.0 15.0 15.0 15.0 15.0 15.0 15.0 15.0 15.0 15.0
15.0 15.0 15.0 15.0 15.0 15.0 15.0 15.0 15.0 15.0 15.0 15.0 15.0 15.0 15.0 15.0 15.0 15.0 15.0 15.0 15.0 15.0 15.0 15.0 15.0 15.0 15.0
15.0 15.0 15.0 15.0 15.0 15.0 15.0 15.0 15.0 15.0 15.0 15.0 15.0 15.0 15.0 15.0 15.0 15.0 15.0 15.0 15.0 15.0 15.0 15.0 15.0 15.0 15.0
15.0 15.0 15.0 15.0 15.0 15.0 15.0 15.0 15.0 15.0 15.0 15.0 15.0 15.0 15.0 15.0 15.0 15.0 15.0 15.0 15.0 15.0 15.0 15.0 15.0 15.0 15.0
15.0 15.0 15.0 15.0 15.0 15.0 15.0 15.0 14.9 15.0 15.0 15.0 15.0 15.0 15.0 15.0 15.0 15.0 15.0 15.0 15.0 15.0 15.0 15.0 15.0 15.0 15.0
15.0 15.0 15.0 15.0 15.0 15.0 15.0 15.0 15.0 15.0 15.0 15.0 15.0 15.0 15.0 15.0 15.0 15.0 15.0 15.0 15.0 15.0 15.0 15.0 15.0 15.0 15.0
15.0 15.0 15.0 15.0 15.0 15.0 6.6 6.1 15.0 15.0 15.0 15.0 15.0 15.0 15.0 15.0 15.0 15.0 15.0 15.0 15.0 15.0 15.0 15.0 15.0 15.0 15.0
15.0 15.0 13.7 15.0 15.0 15.0 14.8 15.0 15.0 15.0 15.0 15.0 15.0 15.0 15.0 15.0 15.0 15.0 15.0 15.0 15.0 15.0 15.0 15.0 15.0 15.0 15.0
15.0 15.0 15.0 15.0 15.0 15.0 15.0 15.0 14.1 2.8 15.0 15.0 15.0 15.0 3.0 15.0 15.0 15.0 15.0 15.0 15.0 15.0 15.0 15.0 15.0 15.0 15.0
15.0 15.0 15.0 15.0 15.0 15.0 15.0 15.0 13.5 11.3 15.0 7.0 0.5 11.0 2.6 2.7 15.0 15.0 15.0 15.0 15.0 15.0 15.0 15.0 15.0 15.0 15.0
15.0 15.0 15.0 15.0 15.0 15.0 15.0 15.0 15.0 14.1 15.0 14.8 0.2 0.6 0.3 0.9 14.1 15.0 15.0 15.0 15.0 15.0 15.0 15.0 15.0 15.0 15.0
15.0 15.0 15.0 15.0 15.0 15.0 15.0 15.0 15.0 15.0 15.0 15.0 13.2 5.3 0.7 0.1 0.4 15.0 7.1 15.0 15.0 15.0 15.0 15.0 15.0 15.0 15.0
15.0 15.0 15.0 15.0 15.0 15.0 15.0 15.0 5.2 11.4 15.0 15.0 15.0 15.0 1.3 0.7 0.2 1.3 15.0 1.0 15.0 15.0 15.0 15.0 15.0 15.0 15.0
15.0 15.0 15.0 15.0 12.4 14.2 13.3 10.9 1.1 5.4 15.0 15.0 15.0 15.0 15.0 7.1 0.4 12.0 15.0 15.0 15.0 15.0 15.0 15.0 15.0 15.0 15.0
15.0 14.4 2.5 1.7 3.9 9.3 3.1 0.3 0.3 3.8 9.0 15.0 15.0 5.2 14.6 15.0 13.7 12.1 15.0 9.9 15.0 15.0 15.0 15.0 15.0 15.0 15.0
13.8 3.2 2.4 2.5 13.0 5.0 3.6 1.2 1.0 12.9 15.0 15.0 3.2 0.4 0.1 0.5 15.0 15.0 15.0 15.0 15.0 15.0 15.0 15.0 13.2 15.0 15.0

GFSFLT2_sfc_vis_132.txt.gz
Visibility
15.0 15.0 15.0 15.0 15.0 15.0 15.0 15.0 15.0 15.0 15.0 15.0 15.0 15.0 15.0 15.0 15.0 15.0 15.0 15.0 15.0 15.0 15.0 15.0 15.0 15.0 15.0
15.0 15.0 15.0 15.0 15.0 15.0 15.0 15.0 15.0 15.0 15.0 15.0 15.0 15.0 15.0 15.0 15.0 15.0 15.0 15.0 15.0 15.0 15.0 15.0 15.0 15.0 15.0
15.0 15.0 15.0 15.0 15.0 15.0 15.0 15.0 15.0 15.0 15.0 15.0 15.0 15.0 15.0 15.0 15.0 15.0 15.0 15.0 15.0 15.0 15.0 15.0 15.0 15.0 15.0
15.0 15.0 15.0 15.0 15.0 15.0 15.0 15.0 15.0 15.0 15.0 15.0 15.0 15.0 15.0 15.0 15.0 15.0 15.0 15.0 15.0 15.0 15.0 15.0 15.0 15.0 15.0
15.0 15.0 15.0 15.0 15.0 15.0 15.0 15.0 15.0 15.0 15.0 15.0 15.0 15.0 15.0 15.0 15.0 15.0 15.0 15.0 15.0 15.0 15.0 15.0 15.0 15.0 15.0
15.0 15.0 15.0 15.0 15.0 15.0 15.0 15.0 15.0 15.0 15.0 15.0 15.0 15.0 15.0 15.0 15.0 15.0 15.0 15.0 15.0 15.0 15.0 15.0 15.0 15.0 15.0
15.0 6.1 15.0 15.0 15.0 15.0 15.0 15.0 15.0 15.0 15.0 15.0 15.0 15.0 15.0 15.0 15.0 15.0 15.0 15.0 15.0 15.0 15.0 15.0 15.0 15.0 15.0
15.0 15.0 15.0 15.0 15.0 15.0 15.0 5.7 7.4 15.0 15.0 15.0 15.0 15.0 15.0 15.0 15.0 15.0 15.0 15.0 15.0 15.0 15.0 15.0 15.0 15.0 15.0
15.0 15.0 15.0 15.0 15.0 15.0 15.0 15.0 15.0 15.0 15.0 15.0 15.0 15.0 15.0 15.0 15.0 15.0 15.0 15.0 15.0 15.0 15.0 15.0 15.0 15.0 15.0
15.0 15.0 15.0 15.0 15.0 15.0 15.0 15.0 15.0 13.6 15.0 15.0 14.8 3.4 13.6 15.0 15.0 15.0 15.0 15.0 15.0 15.0 15.0 15.0 15.0 15.0 15.0
15.0 15.0 15.0 15.0 15.0 15.0 15.0 15.0 15.0 15.0 15.0 13.5 8.3 12.5 1.5 5.7 15.0 15.0 15.0 15.0 15.0 15.0 15.0 15.0 15.0 15.0 15.0
15.0 15.0 15.0 15.0 15.0 15.0 15.0 15.0 15.0 15.0 15.0 15.0 15.0 7.3 0.3 0.5 8.2 15.0 15.0 15.0 15.0 15.0 15.0 15.0 15.0 15.0 15.0
15.0 15.0 15.0 15.0 15.0 15.0 15.0 15.0 15.0 15.0 15.0 15.0 14.0 8.7 0.2 0.2 0.7 9.0 15.0 15.0 15.0 15.0 15.0 15.0 15.0 15.0 15.0
15.0 15.0 15.0 15.0 15.0 15.0 13.9 15.0 5.9 15.0 15.0 15.0 15.0 15.0 15.0 2.0 0.4 0.9 7.2 3.8 15.0 15.0 15.0 15.0 15.0 15.0 15.0
15.0 15.0 15.0 15.0 14.9 12.4 1.6 2.4 0.7 4.9 14.2 15.0 15.0 15.0 15.0 15.0 3.8 14.7 15.0 15.0 15.0 15.0 15.0 7.5 15.0 15.0 15.0
15.0 15.0 5.3 3.0 2.7 6.3 3.3 0.5 0.7 13.4 15.0 15.0 15.0 14.9 11.0 15.0 15.0 14.7 15.0 14.8 15.0 15.0 7.2 1.5 14.4 15.0 15.0
14.1 3.8 1.2 0.7 1.7 4.6 15.0 4.1 0.9 10.6 14.7 15.0 11.1 0.9 0.1 0.9 15.0 15.0 15.0 15.0 15.0 8.0 15.0 15.0 15.0 15.0 15.0